[[{"header":{"parameterUnit":"m.s-1","parameterCategory":1,"la1":30.2991,"la2":30.254,"lo1":-89.0895,"lo2":-89.0444,"dy":0.0017,"dx":0.0017,"nx":28,"ny":28,"refTime":"2025-05-20T09:00:00:Z","depth":0,"parameterNumber":2,"parameterNumberName":"U-component_of_WINDS"},"data":[0,0,0,0,0,0,0,0,0,0,0,0,0,0,0,0,0,0,0,0,0,0,0,0,0,0,0,0,0,0,0,0,0,0,0,0,0,0,0,0,0,0,0,0,0,0,0,0,0,0,0,0,0,0,0,0,0,0,-0.8027,-0.8027,0,-0.8034,-0.8034,-0.8034,-0.8031,-0.8031,-0.8031,-0.8031,-0.8039,-0.8039,-0.804,0,0,0,0,0,0,0,0,0,0,0,0,0,-0.8012,-0.8012,-0.8027,-0.8027,-0.8027,-0.8034,-0.8034,-0.8034,-0.8031,-0.8031,-0.8031,-0.803,-0.8039,-0.8039,-0.804,0,0,0,0,0,0,0,0,0,0,0,0,0,-0.8019,-0.8012,-0.8027,-0.8027,-0.8027,-0.8034,-0.8034,-0.8034,-0.8031,-0.8031,-0.8031,-0.803,-0.8039,-0.8039,-0.804,-0.8048,0,0,-0.8041,-0.8042,0,0,0,0,0,0,0,0,-0.8018,-0.8019,-0.8027,-0.8027,-0.8027,-0.8031,-0.8032,-0.8039,-0.8031,-0.8029,-0.8031,-0.803,-0.8037,-0.8037,-0.8039,-0.8049,-0.8049,-0.8041,-0.8042,-0.8042,-0.8042,0,0,0,0,0,0,0,-0.8018,-0.8019,-0.803,-0.8027,-0.8027,-0.8026,-0.8027,-0.8033,-0.8034,-0.803,-0.8029,-0.803,-0.8037,-0.8039,-0.8039,-0.8049,-0.8041,-0.8042,-0.8042,-0.8042,-0.8064,-0.8065,0,0,0,0,0,0,-0.8017,-0.8019,-0.803,-0.803,-0.8022,-0.8027,-0.8027,-0.803,-0.8034,-0.8035,-0.803,-0.803,-0.8038,-0.8039,-0.804,-0.8049,-0.8042,-0.8043,-0.8043,-0.8064,-0.8064,-0.8065,0,0,0,0,0,0,-0.8017,-0.8018,-0.8029,-0.8024,-0.8026,-0.8027,-0.803,-0.803,-0.8032,-0.8035,-0.8035,-0.8032,-0.8038,-0.8039,-0.8046,-0.8049,-0.8043,-0.8043,-0.8064,-0.8064,-0.8065,-0.8068,0,0,0,0,0,0,-0.8017,-0.8018,-0.8022,-0.8024,-0.8026,-0.8035,-0.803,-0.8031,-0.8033,-0.8033,-0.8037,-0.8037,-0.8038,-0.8045,-0.8046,-0.805,-0.8044,-0.8064,-0.8064,-0.8064,-0.8068,-0.8069,-0.8069,0,0,0,0,0,-0.8016,-0.8023,-0.8022,-0.8023,-0.803,-0.8035,-0.8036,-0.8036,-0.8034,-0.8037,-0.8038,-0.8037,-0.8049,-0.8046,-0.8047,-0.8051,-0.8063,-0.8064,-0.8064,-0.8067,-0.8069,-0.8069,0,0,0,0,0,0,-0.8021,-0.8023,-0.8022,-0.803,-0.8032,-0.8035,-0.8039,-0.8038,-0.8041,-0.8041,-0.8041,-0.8042,-0.8049,-0.8051,-0.8047,-0.8059,-0.8056,-0.8056,-0.8057,-0.8058,-0.8059,-0.8058,-0.8044,0,0,0,0,0,-0.8023,-0.8027,-0.8029,-0.8036,-0.8037,-0.8038,-0.804,-0.804,-0.8043,-0.8044,-0.8046,-0.8049,-0.8053,-0.8056,-0.806,-0.8068,-0.8068,-0.8071,-0.8072,-0.8073,-0.8074,-0.8077,-0.8078,-0.8066,-0.8066,-0.8066,0,0,-0.8028,-0.8029,-0.8032,-0.8037,-0.8039,-0.8043,-0.8039,-0.8044,-0.8046,-0.8045,-0.8051,-0.8052,-0.8056,-0.8063,-0.8066,-0.8065,-0.8077,-0.8074,-0.8074,-0.8074,-0.8078,-0.8079,-0.808,-0.8067,-0.8067,-0.8067,0,0,-0.8037,-0.8039,-0.8045,-0.8046,-0.8049,-0.8049,-0.805,-0.8053,-0.8053,-0.8059,-0.8057,-0.8061,-0.8069,-0.8071,-0.8073,-0.8082,-0.8081,-0.8083,-0.8087,-0.8091,-0.8091,-0.8092,-0.8095,-0.8096,-0.8084,-0.8084,-0.8084,0,-0.8043,-0.8048,-0.8048,-0.8052,-0.8054,-0.8051,-0.8057,-0.8058,-0.8062,-0.8064,-0.8062,-0.807,-0.8072,-0.8079,-0.8081,-0.8083,-0.8084,-0.8083,-0.8091,-0.8092,-0.8093,-0.8095,-0.8096,-0.8084,-0.8084,-0.8084,-0.8084,0,-0.8054,-0.8058,-0.8062,-0.8065,-0.8067,-0.8072,-0.8072,-0.8074,-0.8073,-0.8074,-0.808,-0.8082,-0.8086,-0.8087,-0.8087,-0.8094,-0.8093,-0.8091,-0.8088,-0.8094,-0.8096,-0.8097,-0.8084,-0.8084,-0.8084,-0.8084,0,0,-0.8068,-0.8069,-0.8071,-0.8071,-0.8074,-0.8077,-0.8081,-0.8084,-0.8086,-0.8089,-0.8092,-0.8098,-0.8096,-0.8098,-0.8098,-0.8101,-0.8106,-0.8098,-0.8098,-0.8099,-0.8113,-0.8114,-0.8115,-0.8105,-0.8106,-0.8106,-0.8113,0,-0.8077,-0.8085,-0.8083,-0.809,-0.8093,-0.8091,-0.8094,-0.8096,-0.8096,-0.8099,-0.8099,-0.8103,-0.8101,-0.8102,-0.8104,-0.8105,-0.8109,-0.8105,-0.8108,-0.8109,-0.8107,-0.8117,-0.8118,-0.8124,-0.8114,-0.8114,-0.8114,0,-0.809,-0.8091,-0.8098,-0.8098,-0.81,-0.8103,-0.8105,-0.8108,-0.811,-0.8109,-0.8111,-0.811,-0.8114,-0.8111,-0.8116,-0.8113,-0.8114,-0.8115,-0.8115,-0.8115,-0.8111,-0.8117,-0.8126,-0.8127,-0.8115,-0.8115,-0.8115,0,-0.8098,-0.8102,-0.8107,-0.8107,-0.8108,-0.811,-0.8111,-0.8112,-0.8114,-0.8116,-0.8116,-0.8119,-0.8121,-0.8123,-0.8122,-0.812,-0.8127,-0.8124,-0.8127,-0.8127,-0.8129,-0.8129,-0.8139,-0.813,-0.813,-0.813,-0.813,0,-0.8108,-0.8112,-0.811,-0.8113,-0.8117,-0.8116,-0.812,-0.812,-0.8121,-0.8124,-0.8122,-0.8124,-0.8124,-0.8126,-0.8126,-0.813,-0.8131,-0.813,-0.813,-0.813,-0.813,-0.8131,-0.8131,-0.8131,-0.8131,-0.8131,-0.813,0,-0.8118,-0.8117,-0.8121,-0.8121,-0.8121,-0.8124,-0.8124,-0.8127,-0.8126,-0.813,-0.813,-0.813,-0.8133,-0.8132,-0.8135,-0.8135,-0.814,-0.8139,-0.8139,-0.8139,-0.8142,-0.8141,-0.8152,-0.8154,-0.8145,-0.8145,-0.8145,0,-0.8125,-0.8128,-0.8127,-0.8128,-0.8129,-0.8131,-0.8132,-0.8131,-0.8132,-0.8133,-0.8135,-0.8138,-0.8139,-0.8144,-0.8144,-0.8146,-0.8145,-0.8149,-0.8146,-0.8145,-0.8145,-0.8144,-0.8144,-0.815,-0.815,-0.815,-0.815,0,-0.8136,-0.8135,-0.8136,-0.8137,-0.8139,-0.814,-0.814,-0.8142,-0.814,-0.8142,-0.8144,-0.8145,-0.8148,-0.815,-0.8152,-0.8152,-0.8151,-0.8151,-0.8151,-0.8152,-0.8151,-0.8151,-0.814,-0.8151,-0.8151,-0.815,-0.815,-0.815,-0.8144,-0.8146,-0.8146,-0.8147,-0.8147,-0.8148,-0.815,-0.8149,-0.8151,-0.8152,-0.8151,-0.8154,-0.8154,-0.8156,-0.8157,-0.8159,-0.8158,-0.8159,-0.8159,-0.8159,-0.8159,-0.8151,-0.8159,-0.8159,-0.8159,-0.8159,-0.8159,0,-0.8154,-0.8154,-0.8155,-0.8156,-0.8157,-0.8154,-0.8155,-0.8156,-0.8158,-0.8158,-0.816,-0.8162,-0.8164,-0.8163,-0.8165,-0.8167,-0.8166,-0.8167,-0.8167,-0.8167,-0.8161,-0.816,-0.8167,-0.8167,-0.8167,-0.8167,-0.8167,-0.8167,-0.816,-0.8163,-0.8161,-0.8164,-0.8164,-0.8166,-0.8166,-0.8166,-0.8167,-0.8169,-0.817,-0.817,-0.817,-0.8171,-0.8172,-0.8172,-0.8173,-0.8174,-0.8174,-0.8168,-0.8167,-0.8167,-0.8165,-0.8174,-0.8174,-0.8179,-0.8179,-0.8179]},{"header":{"parameterUnit":"m.s-1","parameterCategory":1,"la1":30.2991,"la2":30.254,"lo1":-89.0895,"lo2":-89.0444,"dy":0.0017,"dx":0.0017,"nx":28,"ny":28,"refTime":"2025-05-20T09:00:00:Z","depth":0,"parameterNumber":3,"parameterNumberName":"V-component_of_WINDS"},"data":[0,0,0,0,0,0,0,0,0,0,0,0,0,0,0,0,0,0,0,0,0,0,0,0,0,0,0,0,0,0,0,0,0,0,0,0,0,0,0,0,0,0,0,0,0,0,0,0,0,0,0,0,0,0,0,0,0,0,5.3834,5.3833,0,5.3745,5.3743,5.3742,5.3699,5.3699,5.3699,5.3699,5.3597,5.3594,5.3592,0,0,0,0,0,0,0,0,0,0,0,0,0,5.3963,5.3961,5.3835,5.3833,5.3832,5.3745,5.3743,5.3742,5.3699,5.3699,5.3699,5.3699,5.3598,5.3595,5.3591,0,0,0,0,0,0,0,0,0,0,0,0,0,5.3893,5.396,5.3835,5.38,5.3796,5.3745,5.3743,5.3742,5.3699,5.3699,5.3699,5.3699,5.3599,5.3595,5.3591,5.3564,0,0,5.3578,5.3576,0,0,0,0,0,0,0,0,5.3897,5.3889,5.3806,5.3803,5.3798,5.3733,5.3751,5.3682,5.3699,5.3735,5.3699,5.3699,5.3642,5.3634,5.3617,5.3559,5.3555,5.3578,5.3575,5.3574,5.3572,0,0,0,0,0,0,0,5.3902,5.3892,5.3799,5.3805,5.38,5.3787,5.3778,5.3738,5.3689,5.3732,5.3729,5.3719,5.3639,5.3621,5.3614,5.3553,5.3578,5.3574,5.3572,5.357,5.3474,5.3474,0,0,0,0,0,0,5.3914,5.3897,5.3801,5.3796,5.3849,5.3785,5.3774,5.3754,5.3689,5.368,5.3719,5.3718,5.3628,5.3619,5.361,5.3577,5.3574,5.357,5.3567,5.3474,5.3474,5.3474,0,0,0,0,0,0,5.3917,5.3906,5.3805,5.3845,5.3832,5.3783,5.376,5.3752,5.3733,5.368,5.367,5.371,5.3627,5.3616,5.3577,5.3573,5.3568,5.3564,5.3474,5.3474,5.3474,5.3509,0,0,0,0,0,0,5.3921,5.3907,5.3897,5.3846,5.383,5.3776,5.376,5.375,5.3728,5.3724,5.3668,5.3659,5.3627,5.3584,5.3573,5.3567,5.3561,5.3474,5.3474,5.3474,5.3508,5.351,5.3512,0,0,0,0,0,5.3925,5.3908,5.3897,5.3886,5.3817,5.3775,5.3766,5.3732,5.3727,5.3717,5.3683,5.3661,5.3576,5.358,5.3568,5.356,5.3474,5.3474,5.3474,5.3507,5.351,5.3512,0,0,0,0,0,0,5.3955,5.39,5.3887,5.3853,5.382,5.3768,5.3753,5.3735,5.37,5.3698,5.3654,5.3642,5.3608,5.358,5.3587,5.3533,5.3523,5.352,5.3552,5.3554,5.3556,5.3563,5.3557,0,0,0,0,0,5.3958,5.3932,5.3884,5.3858,5.3843,5.3802,5.3782,5.376,5.3722,5.3706,5.3669,5.3631,5.3597,5.3574,5.3538,5.3505,5.3492,5.3494,5.3496,5.3498,5.3495,5.3478,5.3479,5.3473,5.3473,5.3473,0,0,5.3963,5.393,5.3914,5.3864,5.3835,5.3807,5.3789,5.3759,5.3738,5.37,5.3663,5.3636,5.3591,5.3556,5.3538,5.3531,5.3495,5.3497,5.3499,5.3496,5.3478,5.3479,5.3479,5.3473,5.3473,5.3473,0,0,5.3958,5.393,5.3907,5.3881,5.384,5.3814,5.3809,5.3761,5.3743,5.3706,5.3679,5.3652,5.3592,5.3562,5.3539,5.353,5.3509,5.352,5.3529,5.3513,5.3514,5.3514,5.3512,5.3511,5.3518,5.3518,5.3518,0,5.3968,5.3927,5.3897,5.387,5.3849,5.382,5.3796,5.3771,5.3719,5.3705,5.3699,5.3627,5.3594,5.3554,5.3553,5.3534,5.3527,5.3524,5.3517,5.3516,5.3516,5.3514,5.3513,5.352,5.3519,5.3519,5.3519,0,5.3943,5.3915,5.3901,5.3858,5.3835,5.381,5.3775,5.3756,5.3737,5.3711,5.3675,5.3637,5.3595,5.3584,5.3562,5.3541,5.3538,5.3525,5.3514,5.3519,5.3516,5.3515,5.3522,5.3521,5.3521,5.352,0,0,5.3949,5.3894,5.3889,5.3871,5.3827,5.3804,5.3778,5.3742,5.3727,5.3693,5.3671,5.3624,5.3614,5.3588,5.3564,5.355,5.3549,5.3539,5.3537,5.3543,5.3525,5.3535,5.3534,5.3536,5.3535,5.3535,5.3529,0,5.3938,5.3894,5.3869,5.3834,5.3809,5.3784,5.3762,5.3732,5.3709,5.3683,5.3656,5.3624,5.3612,5.3597,5.3583,5.3552,5.3544,5.3552,5.3513,5.3512,5.3525,5.3532,5.3541,5.3537,5.3528,5.3527,5.3527,0,5.3918,5.3891,5.3856,5.3819,5.3807,5.3788,5.3755,5.3731,5.3698,5.3682,5.3657,5.3634,5.3606,5.36,5.3561,5.3567,5.355,5.3533,5.3532,5.3526,5.3519,5.3527,5.3535,5.3535,5.3525,5.3525,5.3525,0,5.3928,5.3882,5.3856,5.3841,5.3797,5.3785,5.3765,5.3732,5.3713,5.3684,5.3671,5.3638,5.3619,5.3593,5.3562,5.356,5.3528,5.3517,5.3513,5.3514,5.3505,5.3506,5.3511,5.3496,5.3496,5.3496,5.3496,0,5.3917,5.3897,5.3861,5.3844,5.3822,5.3793,5.3771,5.3749,5.3721,5.37,5.3675,5.3655,5.3616,5.3591,5.3567,5.354,5.3531,5.3517,5.3511,5.3519,5.3521,5.3506,5.3506,5.3495,5.3495,5.3495,5.3495,0,5.3923,5.3898,5.3868,5.3832,5.3822,5.3807,5.3775,5.3758,5.3736,5.371,5.3702,5.3666,5.3636,5.3604,5.3562,5.3546,5.3521,5.3511,5.3533,5.3529,5.3527,5.3528,5.3522,5.3521,5.3507,5.3507,5.3507,0,5.3917,5.3902,5.3866,5.3852,5.3835,5.3812,5.3795,5.3767,5.3749,5.3714,5.3702,5.3672,5.3645,5.36,5.3568,5.3538,5.3527,5.3528,5.3522,5.3533,5.3528,5.353,5.3529,5.3529,5.3529,5.3529,5.353,0,5.3911,5.3902,5.3879,5.3853,5.3835,5.3812,5.3788,5.3777,5.3745,5.3727,5.3699,5.368,5.3641,5.3611,5.3578,5.3556,5.3537,5.3533,5.353,5.3538,5.3551,5.3545,5.3538,5.3532,5.3532,5.3531,5.3531,5.3531,5.3911,5.3898,5.3872,5.3849,5.383,5.381,5.3794,5.3772,5.375,5.3718,5.3703,5.3676,5.3646,5.36,5.358,5.3558,5.3551,5.3547,5.3546,5.3545,5.3549,5.3557,5.3551,5.3551,5.3551,5.3551,5.3551,0,5.3904,5.3888,5.3868,5.3838,5.3821,5.381,5.3785,5.377,5.3747,5.3723,5.37,5.367,5.3643,5.3612,5.3583,5.3572,5.3563,5.3565,5.3565,5.3561,5.3555,5.356,5.3573,5.3573,5.3573,5.3573,5.3573,5.3573,5.3899,5.3877,5.3865,5.3834,5.3817,5.3793,5.378,5.3762,5.3743,5.3711,5.3691,5.3673,5.3646,5.3616,5.3591,5.3583,5.3573,5.3578,5.3568,5.3562,5.356,5.3559,5.3564,5.3577,5.3577,5.3575,5.3575,5.3575]}]]